Capitol Logistics 418


KPVD
Theodore Francis Green State Airport
Providence, Rhode Island, US
KRFD
Chicago/Rockford International Airport
Rockford, Illinois, US

Route Details

Aircraft Information
Primary: Boeing 757-200SF
Backup: Boeing 737-800BCF
Route Data
Distance: 790nm
Sched. Duration: 1h 39m
Avg. Duration: 2h 27m (+88m)
Times Flown: 11
Recm'd Route: BAF HNK NUGNT DJB J60 JOT V171 RFD
Planned Altitude: 38,000ft
Origin Wx: KPVD 262201Z 07005KT 3/4SM R05/5500VP6000FT -SN BR FEW005 OVC009 M01/M01 A2996 RMK AO2 SFC VIS 1 P0001 T10061011
Dest. Wx: KRFD 262154Z 01016G25KT 10SM BKN019 BKN250 M02/M08 A3008 RMK AO2 SLP194 T10221078
Notes:

Financial History
Total Freight: 595,773lbs
Average Load: 54,161lbs/flt
Fuel Used: 202,917lbs
Avg. Fuel Used: 18,447lbs/flt
Fuel Expense: $192,771
Avg. Fuel Expense: $17,525
Avg. Fuel Cost: $0.95/lbs
Total Gross Income: $787,557
Pilot Pay: $1,799
Total Expenses: $85,628
Total Revenue: $503,124
Average Revenue: $71,596.05